Regional Weather Roundup
Issued by NWS

Home | Current Version | Previous Version | Graphics & Text | Print | Product List | Glossary On
Versions: 1 2 3 4 5 6 7 8 9 10 11 12 13 14 15 16 17 18 19 20 21 22 23 24 25 26 27 28 29 30 31 32 33 34 35 36 37 38 39 40 41 42 43 44 45 46 47 48 49 50
000
ASUS43 KFSD 031302
RWRSD

WEATHER ROUNDUP FOR SOUTH DAKOTA
NATIONAL WEATHER SERVICE SIOUX FALLS SD
800 AM CDT THU SEP 03 2015

NOTE: "FAIR" INDICATES FEW OR NO CLOUDS BELOW 12,000 FEET WITH NO
SIGNIFICANT WEATHER AND/OR OBSTRUCTIONS TO VISIBILITY.


SDZ001>005-009-010-012>017-031400-
NORTHWEST AND NORTH CENTRAL SOUTH DAKOTA

CITY           SKY/WX    TMP DP  RH WIND       PRES   REMARKS
BUFFALO          N/A     67  45  45 SE5       29.68R
MOBRIDGE       CLEAR     69  64  84 SE9       29.69S
$$

SDZ012>016-024>037-041>051-057-063-072>074-031400-
SOUTHWEST AND SOUTH CENTRAL SOUTH DAKOTA

CITY           SKY/WX    TMP DP  RH WIND       PRES   REMARKS
RAPID CTY ARPT CLEAR     62  51  67 CALM      29.79S
PIERRE         CLEAR     67  62  84 CALM      29.73R
CUSTER         PTCLDY    59  39  47 W3        29.99R
ELLSWORTH AFB  PTCLDY    67  48  50 SW5       29.78S
PHILIP         CLEAR     67  56  67 CALM      29.75S
PINE RIDGE     PTCLDY    70  52  52 SW5       29.84S
WINNER         FAIR      74  60  61 S8        29.78R
$$

SDZ004>011-016>023-039-040-031400-
NORTHEAST SOUTH DAKOTA

CITY           SKY/WX    TMP DP  RH WIND       PRES   REMARKS
ABERDEEN       SUNNY     71  68  90 S12       29.76R
WATERTOWN      SUNNY     70  67  90 SE9       29.82S
BROOKINGS      SUNNY     70  66  88 SE9       29.86R
$$

SDZ017-020-022-023-036>040-048>070-031400-
SOUTHEAST SOUTH DAKOTA

CITY           SKY/WX    TMP DP  RH WIND       PRES   REMARKS
SIOUX FALLS    SUNNY     70  67  90 SE7       29.84R
HURON          SUNNY     69  67  93 MISG      29.78R
CHAMBERLAIN    CLEAR     65  64  98 E5        29.78R
MITCHELL       SUNNY     69  67  93 SE9       29.79R
YANKTON        SUNNY     66  64  94 E5        29.81R
$$

ABBREVIATIONS USED IN REMARKS
   TC - TEMPERATURE IN CELSIUS
  WCI - WIND CHILL INDEX
   HX - HEAT INDEX
  VSB - VISIBILITY




USA.gov is the U.S. government's official web portal to all federal, state and local government web resources and services.